This is the latest recevied weather packets stored in our database for station/object SQ6ELQ-11. If no packets are shown the sender has not sent any weather packets the latest 10 day(s).
| Time | Temp. | Humidity | Pressure | Rain* | Wind** | Luminosity | Snow |
|---|---|---|---|---|---|---|---|
| 1778324501 | 12.22° C | 45% | 1020.4 hPa | 0 mm | - | - | - |
| 1778323461 | 11.67° C | 44% | 1020.3 hPa | 0 mm | - | - | - |
| 1778322413 | 12.22° C | 46% | 1020.3 hPa | 0 mm | - | - | - |
| 1778321401 | 12.22° C | 45% | 1020.4 hPa | 0 mm | - | - | - |
| 1778320221 | 11.11° C | 48% | 1020.3 hPa | 0 mm | - | - | - |
| 1778319111 | 10.56° C | 49% | 1020.4 hPa | 0 mm | - | - | - |
| 1778317990 | 11.11° C | 50% | 1020.3 hPa | 0 mm | - | - | - |
| 1778316906 | 11.11° C | 53% | 1020.3 hPa | 0 mm | - | - | - |
| 1778315786 | 11.11° C | 54% | 1020.3 hPa | 0 mm | - | - | - |
| 1778314736 | 10.56° C | 57% | 1020.2 hPa | 0 mm | - | - | - |
| 1778313626 | 10.56° C | 57% | 1020.3 hPa | 0 mm | - | - | - |
| 1778312500 | 10° C | 59% | 1020.2 hPa | 0 mm | - | - | - |
| 1778311486 | 9.44° C | 64% | 1020.3 hPa | 0 mm | - | - | - |
| 1778310373 | 9.44° C | 66% | 1020.1 hPa | 0 mm | - | - | - |
| 1778309319 | 8.89° C | 69% | 1020.1 hPa | 0 mm | - | - | - |
| 1778308253 | 8.33° C | 70% | 1019.9 hPa | 0 mm | - | - | - |
| 1778307170 | 8.33° C | 71% | 1019.9 hPa | 0 mm | - | - | - |
| 1778306131 | 7.78° C | 73% | 1019.9 hPa | 0 mm | - | - | - |
| 1778305158 | 7.22° C | 74% | 1019.8 hPa | 0 mm | - | - | - |
| 1778304056 | 7.22° C | 73% | 1019.8 hPa | 0 mm | - | - | - |
| 1778302899 | 7.22° C | 74% | 1019.7 hPa | 0 mm | - | - | - |
| 1778301821 | 7.22° C | 74% | 1019.5 hPa | 0 mm | - | - | - |
| 1778300726 | 6.67° C | 74% | 1019.7 hPa | 0 mm | - | - | - |
| 1778299738 | 6.67° C | 75% | 1019.5 hPa | 0 mm | - | - | - |
| 1778298676 | 6.67° C | 74% | 1019.5 hPa | 0 mm | - | - | - |
* Rain latest hour (hover to see other rain measurements)
** Current wind speed in m/s (hover to see current wind gust speed)